Regional Weather Roundup
Issued by NWS

Home | Current Version | Previous Version | Graphics & Text | Print | Product List | Glossary On
Versions: 1 2 3 4 5 6 7 8 9 10 11 12 13 14 15 16 17 18 19 20 21 22 23 24 25 26 27 28 29 30 31 32 33 34 35 36 37 38 39 40 41 42 43 44 45 46 47 48 49 50
000
ASUS44 KMEG 290300
RWRTN
TENNESSEE HOURLY STATE WEATHER ROUNDUP
NATIONAL WEATHER SERVICE MEMPHIS TN
900 PM CST WED JAN 28 2015

TNZ002-004-019-021-049-052-054-088>092-290400-
WEST TENNESSEE

CITY           SKY/WX    TMP DP  RH WIND       PRES   REMARKS
MEMPHIS INTL   PTCLDY    52  32  46 S10       30.10R
NWS MEMPHIS      N/A     51 N/A N/A MISG        N/A
JACKSON        MOCLDY    50  29  44 S8        30.13R
DYERSBURG      MOCLDY    48  25  40 SE14      30.07F
UNION CITY     CLEAR     43  30  61 SE10      30.06F
PARIS          CLEAR     41  27  56 S6        30.12R
LEXINGTON      CLEAR     45  27  49 S6        30.12R
SAVANNAH       CLEAR     46  28  49 S6        30.14S
$$

TNZ008-025-027-028-033-062-065-066-290400-
NORTH MIDDLE TENNESSEE

CITY           SKY/WX    TMP DP  RH WIND       PRES   REMARKS
NASHVILLE      PTCLDY    43  27  53 SE8       30.15F
CLARKSVILLE    PTCLDY    43  26  51 S8        30.11S
COOKEVILLE     CLEAR     37  18  44 S6        30.17F WCI  33
CROSSVILLE     CLEAR     33   8  35 S3        30.20F
$$

TNZ061-075-076-078-094-096-097-290400-
SOUTH MIDDLE TENNESSEE

CITY           SKY/WX    TMP DP  RH WIND       PRES   REMARKS
FAYETTEVILLE   CLEAR     39  25  56 MISG      30.16F
TULLAHOMA      CLEAR     41  21  45 SE6       30.17F
WINCHESTER     CLEAR     39  23  52 SE8       30.19F WCI  34
SHELBYVILLE    CLEAR     43  28  56 SE8       30.16F
$$

TNZ017-018-042-046-047-290400-
NORTHEAST TENNESSEE

CITY           SKY/WX    TMP DP  RH WIND       PRES   REMARKS
TRI CITIES     PTCLDY    25  20  81 CALM      30.27S
ELIZABETHTON   CLEAR     25  19  80 CALM      30.26S
$$

TNZ012-013-036-069-073-074-290400-
CENTRAL EAST TENNESSEE

CITY           SKY/WX    TMP DP  RH WIND       PRES   REMARKS
KNOXVILLE      CLEAR     34  18  52 N3        30.26
OAK RIDGE      CLEAR     30  22  72 CALM      30.28S
GATLINBURG     CLEAR     27  19  74 CALM      30.26R
$$

TNZ083-085-099-290400-
SOUTHEAST TENNESSEE

CITY           SKY/WX    TMP DP  RH WIND       PRES   REMARKS
CHATTANOOGA    PTCLDY    35  22  58 CALM      30.27S
$$

SKY/WX REPORTED AS FAIR MEANS FEW OR NO CLOUDS BELOW
12 THOUSAND FEET.



USA.gov is the U.S. government's official web portal to all federal, state and local government web resources and services.